FENGYUN 1C DEB, 41011

Orbit data source: Space-Track

FENGYUN 1C DEB, 41011 is space debris in SSO originally from a launch on Mon, 10 May 1999 UTC launched from the Taiyaun Space Center, China (TSC). Fengyun 1C debris stems from the Chinese weather satellite Fengyun-1C, which was intentionally destroyed by a Chinese anti-satellite missile in 2007. This event dramatically increased the amount of space debris, with thousands of trackable fragments posing hazards to satellites and human spaceflight. The Fengyun 1C debris cloud has become a focal point in discussions about space sustainability and the need for international regulations to prevent the creation of new debris.

Loading next visibility...
Identifier
41011, 1999-025EXR
Orbit
SSO
Country
Flag of CNCN / PRC
Related business
Manufacturer
Unknown
Mission
Spacecraft
Bus & Motor
Unknown
Mass
Unknown
Launch date (UTC)
1999-05-10 (27 years ago)
Launch vehicle
Unknown
Launch site
Taiyaun Space Center, China (TSC)
Object type
Payload
Rocket body
Debris
Shape & HBR
Unknown shape, 0.1 m
Radar Cross Section
Small (<0.1 m²)

Expand to show TLE details & history
Last TLE update: 9 hours ago

TLE from 9 hours ago
0 FENGYUN 1C DEB
1 41011U 99025EXR 26121.43177403  .00001937  00000-0  33198-3 0  9990
2 41011  99.1448 182.1725 0305490 304.7812  52.4970 14.43972904591720
Epoch: 2026-05-01T10:21Z
TLE epoch observation values (Epoch: 2026-05-01T10:21:45.276Z)
Latitude
-0.00004°
Longitude
167.36974°
Altitude
620.13 km
Speed
7.616 km/s
True Right ascension
12h 08m 41s
True Declination
0° 00' 00"
Sunlit
Object was in full shadow at epoch
Visualization orbit readout
Latitude
Unknown
Longitude
Unknown
Altitude
Unknown
Speed
Unknown
Apparent Right ascension
Unknown
Apparent Declination
Unknown
Sunlit
N/A
Visualization observer readout
Local Sidereal Time
02:48:00
Azimuth
Unknown
Elevation
Unknown
Doppler factor
Unknown
Orbital elements
Apogee altitude
960.076 km
Perigee altitude
525.017 km
Semi-major axis
7,120.683 km
Eccentricity
0.03055
Inclination
99.1448°
RAAN
182.1725°
Arg. of periapsis
304.7812°
True anomaly
55.33901°
Mean anomaly
52.497°
Eccentric anomaly
53.91145°
Mean motion
3.61211 °/min
Orbital period
99.66 mins
BSTAR
0.00033198
Loading maneuver chart data...
Computing Atmospheric mass density...
Loading historical data...
Loading historical data...
Loading historical data...
Loading historical data...
Loading historical data...
Loading historical data...
Loading historical data...

Documentation

Showing up to 5 results
|